Home > Time Zones > World Clock > Weather > Norway > Sola > Past weeks

Flag for Norway Weather past 2 weeks in Sola, Norway

Now
57 °F

Low clouds.


Feels Like: 55 °F
Forecast: 51 / 58 °F
Wind: 9 mph from Northwest

Location: Stavanger / Sola

Current Time: Jul 30, 2015 at 10:41:51 AM

Latest Report: Jul 30, 2015 at 10:00 AM


Visibility: 9 mi

Pressure: 29.62 "Hg

Humidity: 88%

Dew point: 53 °F

Location of SolaLocation

Historic Weather in Sola — Graph

°F

Sola temperature yesterday

Maximum temperature yesterday: 66 °F (at 5:00 PM)
Minimum temperature yesterday: 56 °F (at 4:00 AM)
Average temperature yesterday: 60 °F

Past Weeks' High & Low Weather Summary

 TemperatureHumidityPressure
High69 °F (Jul 17, 2:00 PM)98% (Jul 20, 6:00 AM)30.15 "Hg (Jul 20, 6:00 AM)
Low45 °F (Jul 17, 5:00 AM)38% (Jul 17, 4:00 PM)29.38 "Hg (Jul 29, 10:00 AM)
Average57 °F80%29.73 "Hg
* Reported Jul 15 9:00 AM — Jul 30 9:00 AM, Sola, Weather by CustomWeather, © 2015

Note: Actual official high and low records may vary slightly from our data, if they occured in-between our weather recording intervals... More about our weather records

Advertising

Sola weather history for previous 24 hours

 ConditionsComfort  
Time TempWeatherWind HumidityBarometerVisibility
9:00 AM
Thu, Jul 30
57 °FLow clouds.8 mph90%29.60 "Hg7 mi
8:00 AM57 °FPartly sunny.7 mph92%29.58 "Hg6 mi
7:00 AM57 °FOvercast.6 mph92%29.57 "Hg7 mi
6:00 AM57 °FPartly sunny.5 mph93%29.55 "Hg6 mi
4:00 AM58 °FPassing clouds.1 mph92%29.53 "Hg6 mi
3:00 AM58 °FPassing clouds.2 mph90%29.50 "Hg7 mi
2:00 AM58 °FOvercast.2 mph90%29.50 "Hg7 mi
1:00 AM59 °FPassing clouds.2 mph89%29.47 "Hg12 mi
12:00 AM59 °FOvercast.1 mph90%29.47 "Hg7 mi
11:00 PM
Wed, Jul 29
59 °FOvercast.5 mph89%29.44 "Hg7 mi
10:00 PM60 °FScattered clouds.3 mph85%29.44 "Hg13 mi
9:00 PM63 °FPassing clouds.3 mph75%29.41 "Hg31 mi
8:00 PM64 °FRain showers. Sunny.5 mph75%29.41 "Hg22 mi
7:00 PM65 °FScattered clouds.5 mph69%29.41 "Hg31 mi
6:00 PM65 °FPassing clouds.5 mph70%29.38 "Hg25 mi
5:00 PM66 °FPassing clouds.7 mph69%29.38 "Hg25 mi
4:00 PM65 °FPassing clouds.7 mph72%29.38 "Hg25 mi
3:00 PM64 °FRain showers. Passing clouds.5 mph75%29.38 "Hg25 mi
2:00 PM61 °FLight rain. Passing clouds.3 mph80%29.38 "Hg9 mi
1:00 PM61 °FLight rain. Passing clouds.3 mph79%29.38 "Hg19 mi
12:00 PM59 °FLight rain. Passing clouds.3 mph83%29.38 "Hg13 mi
11:00 AM61 °FSprinkles. Passing clouds.3 mph81%29.38 "Hg25 mi
10:00 AM60 °FDrizzle. Partly sunny.2 mph84%29.38 "Hg19 mi
Weather by CustomWeather, © 2015

See weather overviewHow to use our weather pages